Regional Weather Roundup
Issued by NWS Glasgow, MT

Home | Current Version | Previous Version | Text Only | Print | Product List | Glossary On
Versions: 1 2 3 4 5 6 7 8 9 10 11 12 13 14 15 16 17 18 19 20 21 22 23 24 25 26 27 28 29 30 31 32 33 34 35 36 37 38 39 40 41 42 43 44 45 46 47 48 49 50
785
ASUS45 KGGW 100715
RWRGGW
HOURLY REGIONAL WEATHER ROUNDUP FOR NORTHEAST MONTANA
NATIONAL WEATHER SERVICE GLASGOW MONTANA
1200 AM MST WED FEB 10 2016

NOTE: "FAIR" INDICATES FEW OR NO CLOUDS BELOW 12,000 FEET WITH NO
SIGNIFICANT WEATHER AND/OR OBSTRUCTIONS TO VISISBILITY.

NORTHEAST MONTANA


CITY           SKY/WX    TMP DP  RH WIND       PRES   REMARKS
GLASGOW        CLOUDY    37  29  72 NW5       29.89F
PLENTYWOOD       N/A     29  25  85 E3          N/A
WOLF POINT     CLOUDY    30  27  88 SW6       29.91F
JORDAN           N/A     30  26  85 W7        29.93F
WINNETT          N/A     33  27  78 CALM        N/A
SIDNEY         MOCLDY    27  21  80 S7        29.90F
GLENDIVE       CLOUDY    34  28  80 CALM      29.94F
SCOBEY           N/A     29  22  75 CALM      29.86F

FORT PECK REPORTS


CITY           SKY/WX    TMP DP  RH WIND       PRES   REMARKS
FORT PECK        N/A     38  30  73 SE7         N/A
THE PINES        N/A     42  30  62 SW6         N/A

SOUTHEAST MONTANA


CITY           SKY/WX    TMP DP  RH WIND       PRES   REMARKS
BILLINGS       CLOUDY    44  22  41 SW25      30.05F
MILES CITY     CLOUDY    33  26  75 S6        29.96F
BAKER          CLEAR     32  25  75 W6        29.94F
LIVINGSTON     CLOUDY    48  21  34 SW30      30.17F

CENTRAL MONTANA


CITY           SKY/WX    TMP DP  RH WIND       PRES   REMARKS
HAVRE          PTCLDY    39  25  57 W12       29.98S
LEWISTOWN      CLOUDY    39  23  52 SW12      30.05F
GREAT FALLS    CLOUDY    44  22  41 SW16      30.06F
CUT BANK       MOCLDY    49  28  44 W23       30.02F
HELENA         CLOUDY    30  26  85 W5        30.20F
BUTTE          CLOUDY    14  11  87 SE5       30.28F
BOZEMAN        CLOUDY    22  16  78 S5        30.25F

WESTERN MONTANA


CITY           SKY/WX    TMP DP  RH WIND       PRES   REMARKS
MISSOULA       FOG       24  23  96 CALM      30.30R VSB 3/4
KALISPELL      NOT AVBL

NORTH DAKOTA


CITY           SKY/WX    TMP DP  RH WIND       PRES   REMARKS
WILLISTON      PTCLDY    28  23  81 SW3       29.89F
DICKINSON      PTCLDY    32  25  75 W8        29.88F
MINOT          LGT SNOW  19  12  74 E13       29.97F VSB 1
BISMARCK       CLOUDY    28  20  71 E16       29.99F

SOUTHERN SASKATCHEWAN


CITY           SKY/WX    TMP DP  RH WIND       PRES   REMARKS
REGINA         MOCLDY    28  25  86 SE13      29.83
ESTEVAN        CLOUDY    21  18  86 SE17G23   29.88F
SWIFT CURRENT  CLEAR     37  28  70 W14       29.84F





USA.gov is the U.S. government's official web portal to all federal, state and local government web resources and services.